Location: Earls Croome
(52.0667°N, 2.2000°W)
Time: 10:55:46
(UTC+00:00)

COSMOS 2455 - Pass Details

Date: 24 February 2020
Orbit: 901 x 909 km, 67.2° (Epoch: 05 April)

Event Time Altitude Azimuth Distance (km) Brightness Sun altitude
Exits shadow 03:33:24 15° 338° (NNW) 2,234 4.9 -32.7°
Maximum altitude 03:36:37 23° 18° (NNE) 1,844 4.8 -32.2°
Drops below altitude 10° 03:41:19 10° 70° (ENE) 2,599 6.1 -31.6°
Sets 03:44:24 0° 85° (E) 3,539 6.9 -31.2°
